Dewpoint
33 32 33 32 32 34 32 33 32 32 32 32 31 32 31 32 32 33 32 31 31 31 31 30 29 29 30 28 27 24 24 26 25 25 26 26 24 28 29 29 28 23
31 32 31 32 32 32 31 32 32 32 31 32 32 31 32 33 33 33 32 32 31 31 31 31 30 29 29 27 28 25 22 23 25 28 26 27 25 27 28 29 28 27
30 31 31 32 31 32 32 32 32 32 31 31 32 32 33 33 34 33 32 32 31 31 31 30 30 29 29 28 27 25 20 19 19 23 24 25 24 23 24 27 25 28
29 29 29 30 31 30 31 31 31 31 31 31 31 32 32 36 33 33 33 31 31 31 30 30 30 29 28 28 27 22 19 18 17 17 18 17 19 19 21 23 24 25
29 29 29 29 29 30 30 30 30 30 30 30 31 32 31 32 32 31 31 31 31 30 30 29 29 28 28 27 26 22 19 17 16 16 15 15 15 17 17 18 18 20
27 27 27 27 28 28 28 27 28 28 28 28 30 29 30 31 30 30 30 30 29 29 29 28 28 27 26 25 23 21 20 18 16 15 15 14 14 15 19 16 14 14
26 26 26 26 26 26 25 26 26 27 27 27 27 27 28 28 28 29 29 29 28 27 27 26 26 25 24 23 22 21 20 18 17 16 15 14 14 14 14 14 13 13
24 24 25 25 26 25 24 24 24 25 26 25 25 25 25 26 26 27 27 27 27 26 26 25 24 24 23 22 21 20 19 22 19 16 15 15 15 14 14 15 14 14
23 23 23 23 24 25 24 24 24 24 24 24 24 24 24 24 24 25 26 26 26 25 25 24 24 23 22 21 21 20 19 19 21 17 16 16 15 15 14 14 14 14
22 23 22 22 22 24 24 25 25 25 25 24 24 24 23 23 23 24 24 24 24 24 24 24 23 23 22 21 21 20 19 19 18 17 17 16 16 15 15 15 15 14
21 21 22 22 23 24 24 25 25 25 25 24 24 23 23 22 22 22 22 23 25 23 23 23 23 22 22 21 21 20 20 19 18 17 16 16 16 15 19 16 16 16
21 21 21 22 23 24 24 24 25 26 26 26 25 24 24 23 22 22 22 22 22 23 23 23 23 22 21 21 21 20 20 19 18 17 16 16 16 16 16 17 16 17
22 22 22 23 23 24 24 24 24 25 25 26 26 26 25 25 24 22 22 22 22 22 22 22 22 22 22 22 21 20 20 19 19 18 17 16 16 15 15 16 16 17
22 21 22 24 24 25 25 25 25 25 25 25 27 27 27 26 25 25 23 22 22 22 22 22 22 22 22 22 21 20 20 19 19 19 17 16 16 15 15 15 16 17
22 22 22 22 24 25 26 26 25 25 25 26 26 26 27 26 26 25 25 24 22 22 22 22 22 22 23 21 21 20 20 20 21 20 18 17 16 16 15 15 15 15
20 20 20 22 24 25 26 25 25 26 26 26 26 26 26 26 26 26 25 25 24 23 23 23 23 24 26 28 27 23 21 23 22 23 21 18 17 16 15 15 14 15
18 18 20 22 24 25 28 27 26 26 27 27 27 27 26 26 26 25 25 25 24 24 23 23 24 24 28 30 31 31 25 23 25 25 24 21 19 17 17 16 14 14
18 19 20 22 25 28 28 28 27 26 26 26 26 26 26 27 26 26 25 25 24 24 23 23 23 27 30 30 31 31 30 26 26 26 26 22 21 19 17 16 15 14
18 20 20 22 24 28 28 27 26 26 26 26 25 25 25 25 24 25 25 25 24 24 24 24 23 27 30 32 31 32 32 30 26 26 26 25 22 20 18 17 16 15
17 21 19 20 23 26 27 25 25 24 23 23 23 24 25 26 26 25 26 25 24 24 24 24 24 27 29 30 32 32 32 32 29 27 26 26 23 21 19 17 16 16
19 18 18 17 21 24 25 24 22 22 22 20 20 20 23 24 24 25 26 27 27 27 25 25 24 27 28 29 30 31 32 32 29 28 27 26 24 22 20 18 16 15
17 17 17 17 18 22 23 22 21 20 18 17 17 17 21 23 24 26 26 27 27 27 26 26 25 28 28 28 29 29 30 30 29 29 28 27 26 23 20 18 16 15
15 15 15 16 17 21 22 20 18 17 16 15 17 18 20 21 23 24 25 25 26 26 26 26 27 27 28 28 29 29 29 29 29 29 28 28 27 25 22 19 17 15
15 15 15 16 17 20 19 17 15 14 13 14 14 16 18 21 23 22 24 25 25 25 25 26 27 27 28 28 28 29 29 29 28 28 28 28 28 26 23 20 18 22
14 14 14 15 17 17 15 14 13 12 12 13 14 16 17 18 20 21 22 23 25 25 26 26 27 27 27 28 28 28 28 28 28 27 27 28 27 26 25 22 18 21
14 14 14 15 16 15 13 11 11 10 11 12 13 13 13 14 14 18 21 21 23 23 24 25 25 26 26 27 28 28 29 28 27 26 26 28 27 26 24 22 20 18